{"data":{"norad_id":33274,"epoch":"2026-05-25T04:23:13.559712Z","epoch_age_seconds":53079,"freshness":"FRESH","line1":"1 33274U 08038A   26145.18279583 -.00000308  00000+0  00000+0 0  9999","line2":"2 33274   2.3040  81.5374 0005655  15.9264 347.1089  1.00270728105506","mean_motion":1.00270728,"eccentricity":0.0005655,"inclination_deg":2.304,"raan_deg":81.5374,"arg_perigee_deg":15.9264,"mean_anomaly_deg":347.1089,"bstar":0,"rev_number":10550,"period_min":1436.1120425893,"perigee_km":35763.046955772,"apogee_km":35810.735602756,"semimajor_km":42165.028279264,"source":"CELESTRAK","updated_at":"2026-05-25T13:38:13.860379Z"}}